| time (UTC) | temp C | wind direction | speed KPH | gust KPH | rain 1hr cm | rain 24hr cm | rain mn cm | humidity % | barometer mb |
| 20260502130507 | 6 | 4 | 6.4 | 19.3 | 0.00 | 0.00 | 0.00 | 52 | 1013.1 |
| 20260502123503 | 6 | 319 | 4.8 | 17.7 | 0.00 | 0.00 | 0.00 | 59 | 1013.0 |
| 20260502123003 | 6 | 318 | 9.7 | 17.7 | 0.00 | 0.00 | 0.00 | 60 | 1012.8 |
| 20260502122502 | 6 | 6 | 6.4 | 16.1 | 0.00 | 0.00 | 0.00 | 62 | 1012.7 |
| 20260502122003 | 6 | 13 | 4.8 | 16.1 | 0.00 | 0.00 | 0.00 | 63 | 1012.8 |
| 20260502121508 | 6 | 338 | 8.0 | 16.1 | 0.00 | 0.00 | 0.00 | 64 | 1012.8 |
| 20260502121101 | 6 | 25 | 8.0 | 16.1 | 0.00 | 0.00 | 0.00 | 64 | 1012.7 |
| 20260502120600 | 6 | 337 | 4.8 | 12.9 | 0.00 | 0.00 | 0.00 | 67 | 1012.5 |
| 20260502120104 | 6 | 330 | 3.2 | 14.5 | 0.00 | 0.00 | 0.00 | 68 | 1012.5 |
| 20260502115559 | 6 | 32 | 3.2 | 11.3 | 0.00 | 0.00 | 0.00 | 68 | 1012.6 |
| 20260502115100 | 6 | 347 | 3.2 | 11.3 | 0.00 | 0.00 | 0.00 | 69 | 1012.6 |
| 20260502114558 | 6 | 354 | 4.8 | 12.9 | 0.00 | 0.00 | 0.00 | 70 | 1012.6 |
| 20260502114056 | 6 | 18 | 6.4 | 14.5 | 0.00 | 0.00 | 0.00 | 71 | 1012.5 |
| 20260502113557 | 6 | 23 | 8.0 | 14.5 | 0.00 | 0.00 | 0.00 | 72 | 1012.8 |
| 20260502113055 | 6 | 26 | 6.4 | 12.9 | 0.00 | 0.00 | 0.00 | 73 | 1012.7 |
| 20260502112554 | 6 | 20 | 3.2 | 14.5 | 0.00 | 0.00 | 0.00 | 74 | 1012.7 |
| 20260502112054 | 6 | 331 | 8.0 | 14.5 | 0.00 | 0.00 | 0.00 | 74 | 1012.7 |
| 20260502111605 | 6 | 329 | 4.8 | 9.7 | 0.00 | 0.00 | 0.00 | 75 | 1012.7 |
| 20260502111055 | 6 | 331 | 3.2 | 9.7 | 0.00 | 0.00 | 0.00 | 75 | 1012.7 |
| 20260502110553 | 6 | 342 | 3.2 | 11.3 | 0.00 | 0.00 | 0.00 | 76 | 1012.4 |
| 20260502110053 | 6 | 315 | 4.8 | 14.5 | 0.00 | 0.00 | 0.00 | 76 | 1012.5 |
| 20260502105553 | 6 | 4 | 6.4 | 14.5 | 0.00 | 0.00 | 0.00 | 77 | 1012.5 |
| 20260502105052 | 6 | 347 | 6.4 | 14.5 | 0.00 | 0.00 | 0.00 | 77 | 1012.4 |
| 20260502104553 | 6 | 6 | 6.4 | 14.5 | 0.00 | 0.00 | 0.00 | 78 | 1012.4 |
| 20260502104051 | 6 | 331 | 6.4 | 14.5 | 0.00 | 0.00 | 0.00 | 79 | 1012.2 |
| 20260502103549 | 6 | 355 | 3.2 | 8.0 | 0.00 | 0.00 | 0.00 | 80 | 1012.5 |
| 20260502103102 | 6 | 5 | 3.2 | 9.7 | 0.00 | 0.00 | 0.00 | 80 | 1012.5 |
| 20260502102549 | 6 | 333 | 3.2 | 12.9 | 0.00 | 0.00 | 0.00 | 79 | 1012.4 |
| 20260502102048 | 6 | 353 | 6.4 | 12.9 | 0.00 | 0.00 | 0.00 | 79 | 1012.3 |
| 20260502101558 | 6 | 352 | 3.2 | 12.9 | 0.00 | 0.00 | 0.00 | 79 | 1012.4 |
| 20260502101048 | 6 | 347 | 6.4 | 14.5 | 0.00 | 0.00 | 0.00 | 79 | 1012.3 |
| 20260502100546 | 6 | 2 | 6.4 | 12.9 | 0.00 | 0.00 | 0.00 | 79 | 1012.4 |
| 20260502091038 | 6 | 355 | 4.8 | 16.1 | 0.00 | 0.00 | 0.00 | 77 | 1013.1 |
| 20260502090540 | 6 | 335 | 4.8 | 16.1 | 0.00 | 0.00 | 0.00 | 77 | 1013.0 |
| 20260502071527 | 7 | 1 | 4.8 | 12.9 | 0.00 | 0.00 | 0.00 | 80 | 1012.2 |
| 20260502071021 | 7 | 348 | 4.8 | 12.9 | 0.00 | 0.00 | 0.00 | 80 | 1012.2 |
| 20260502070521 | 7 | 317 | 4.8 | 9.7 | 0.00 | 0.00 | 0.00 | 80 | 1012.3 |
| 20260502070025 | 7 | 332 | 4.8 | 8.0 | 0.00 | 0.00 | 0.00 | 80 | 1012.3 |
| 20260502065519 | 8 | 324 | 3.2 | 6.4 | 0.00 | 0.00 | 0.00 | 79 | 1012.3 |
| 20260502065022 | 8 | 13 | 1.6 | 6.4 | 0.00 | 0.00 | 0.00 | 79 | 1012.2 |
| 20260502064518 | 8 | 349 | 1.6 | 6.4 | 0.00 | 0.00 | 0.00 | 79 | 1012.2 |
| 20260502064017 | 8 | 359 | 1.6 | 9.7 | 0.00 | 0.00 | 0.00 | 79 | 1012.2 |
| 20260502063516 | 8 | 15 | 3.2 | 6.4 | 0.00 | 0.00 | 0.00 | 79 | 1012.4 |
| 20260502063025 | 8 | 326 | 0.0 | 3.2 | 0.00 | 0.00 | 0.00 | 79 | 1012.7 |
| 20260502062514 | 8 | 344 | 0.0 | 1.6 | 0.00 | 0.00 | 0.00 | 78 | 1012.8 |
| 20260502062013 | 8 | 345 | 0.0 | 6.4 | 0.00 | 0.00 | 0.00 | 77 | 1012.8 |
| 20260502061513 | 8 | 18 | 1.6 | 6.4 | 0.00 | 0.00 | 0.00 | 77 | 1012.9 |
| 20260502061012 | 8 | 326 | 1.6 | 8.0 | 0.00 | 0.00 | 0.00 | 77 | 1013.0 |
| 20260502060512 | 8 | 348 | 3.2 | 8.0 | 0.00 | 0.00 | 0.00 | 77 | 1013.1 |
| 20260502060018 | 8 | 327 | 3.2 | 8.0 | 0.00 | 0.00 | 0.00 | 77 | 1013.1 |
| 20260502055511 | 8 | 325 | 1.6 | 6.4 | 0.00 | 0.00 | 0.00 | 77 | 1013.1 |
| 20260502055011 | 8 | 9 | 3.2 | 6.4 | 0.00 | 0.00 | 0.00 | 77 | 1013.2 |
| 20260502054522 | 8 | 350 | 0.0 | 8.0 | 0.00 | 0.00 | 0.00 | 76 | 1013.3 |
| 20260502054010 | 8 | 338 | 3.2 | 8.0 | 0.00 | 0.00 | 0.00 | 76 | 1013.2 |
| 20260502053510 | 8 | 6 | 0.0 | 4.8 | 0.00 | 0.00 | 0.00 | 76 | 1013.4 |
| 20260502053009 | 8 | 1 | 0.0 | 4.8 | 0.00 | 0.00 | 0.00 | 75 | 1013.4 |
| 20260502052509 | 8 | 16 | 0.0 | 3.2 | 0.00 | 0.00 | 0.00 | 75 | 1013.4 |
| 20260502052010 | 8 | 16 | 1.6 | 3.2 | 0.00 | 0.00 | 0.00 | 75 | 1013.4 |
| 20260502051509 | 8 | 333 | 0.0 | 11.3 | 0.00 | 0.00 | 0.00 | 74 | 1013.2 |
| 20260502051008 | 8 | 9 | 3.2 | 11.3 | 0.00 | 0.00 | 0.00 | 74 | 1013.3 |
| 20260502050508 | 8 | 304 | 0.0 | 3.2 | 0.00 | 0.00 | 0.00 | 73 | 1013.4 |
| 20260502050009 | 8 | 323 | 0.0 | 4.8 | 0.00 | 0.00 | 0.00 | 73 | 1013.1 |
| 20260502045507 | 8 | 323 | 0.0 | 4.8 | 0.00 | 0.00 | 0.00 | 73 | 1013.2 |
| 20260502045007 | 8 | 338 | 0.0 | 4.8 | 0.00 | 0.00 | 0.00 | 72 | 1013.3 |
| 20260502044506 | 8 | 338 | 0.0 | 4.8 | 0.00 | 0.00 | 0.00 | 73 | 1013.2 |
| 20260502044005 | 8 | 359 | 0.0 | 6.4 | 0.00 | 0.00 | 0.00 | 73 | 1013.0 |
| 20260502043504 | 7 | 338 | 3.2 | 6.4 | 0.00 | 0.00 | 0.00 | 74 | 1013.1 |
| 20260502043003 | 8 | 203 | 0.0 | 1.6 | 0.00 | 0.00 | 0.00 | 73 | 1013.2 |
| 20260502042502 | 8 | 203 | 0.0 | 1.6 | 0.00 | 0.00 | 0.00 | 72 | 1013.1 |
| 20260502042003 | 8 | 345 | 0.0 | 6.4 | 0.00 | 0.00 | 0.00 | 70 | 1013.2 |
| 20260502041600 | 8 | 345 | 1.6 | 6.4 | 0.00 | 0.00 | 0.00 | 70 | 1013.2 |
| 20260502041059 | 8 | 345 | 0.0 | 1.6 | 0.00 | 0.00 | 0.00 | 70 | 1013.2 |
| 20260502040558 | 8 | 345 | 0.0 | 1.6 | 0.00 | 0.00 | 0.00 | 70 | 1013.1 |
| 20260502040057 | 8 | 345 | 0.0 | 4.8 | 0.00 | 0.00 | 0.00 | 70 | 1013.2 |
| 20260502035600 | 8 | 345 | 0.0 | 4.8 | 0.00 | 0.00 | 0.00 | 71 | 1013.2 |
| 20260502035057 | 8 | 65 | 0.0 | 3.2 | 0.00 | 0.00 | 0.00 | 71 | 1013.2 |
| 20260502034557 | 7 | 65 | 0.0 | 3.2 | 0.00 | 0.00 | 0.00 | 72 | 1013.3 |
| 20260502034057 | 7 | 3 | 0.0 | 3.2 | 0.00 | 0.00 | 0.00 | 73 | 1013.2 |
| 20260502033556 | 8 | 124 | 0.0 | 3.2 | 0.00 | 0.00 | 0.00 | 72 | 1013.2 |
| 20260502033057 | 8 | 108 | 0.0 | 4.8 | 0.00 | 0.00 | 0.00 | 72 | 1013.0 |
| 20260502032556 | 8 | 114 | 1.6 | 4.8 | 0.00 | 0.00 | 0.00 | 71 | 1013.0 |
| 20260502032056 | 8 | 110 | 0.0 | 1.6 | 0.00 | 0.00 | 0.00 | 69 | 1013.1 |
| 20260502031556 | 8 | 111 | 0.0 | 1.6 | 0.00 | 0.00 | 0.00 | 69 | 1013.2 |
| 20260502031056 | 8 | 111 | 0.0 | 1.6 | 0.00 | 0.00 | 0.00 | 68 | 1013.0 |
| 20260502030555 | 8 | 110 | 0.0 | 1.6 | 0.00 | 0.00 | 0.00 | 67 | 1013.2 |
| 20260502030056 | 8 | 110 | 0.0 | 0.0 | 0.00 | 0.00 | 0.00 | 66 | 1013.3 |
| 20260502025554 | 9 | 111 | 0.0 | 0.0 | 0.00 | 0.00 | 0.00 | 66 | 1013.3 |
| 20260502025058 | 9 | 111 | 0.0 | 0.0 | 0.00 | 0.00 | 0.00 | 64 | 1013.4 |
| 20260502024554 | 9 | 110 | 0.0 | 1.6 | 0.00 | 0.00 | 0.00 | 61 | 1013.5 |
| 20260502024054 | 10 | 111 | 0.0 | 1.6 | 0.00 | 0.00 | 0.00 | 62 | 1013.5 |
| 20260502023556 | 10 | 110 | 0.0 | 3.2 | 0.00 | 0.00 | 0.00 | 60 | 1013.4 |
| 20260502023056 | 10 | 111 | 0.0 | 3.2 | 0.00 | 0.00 | 0.00 | 60 | 1013.4 |
| 20260502022556 | 10 | 143 | 0.0 | 3.2 | 0.00 | 0.00 | 0.00 | 60 | 1013.2 |
| 20260502022054 | 10 | 115 | 0.0 | 3.2 | 0.00 | 0.00 | 0.00 | 60 | 1013.2 |
| 20260502021553 | 10 | 165 | 0.0 | 3.2 | 0.00 | 0.00 | 0.00 | 59 | 1013.3 |
| 20260502021053 | 10 | 162 | 0.0 | 3.2 | 0.00 | 0.00 | 0.00 | 59 | 1013.2 |
| 20260502020553 | 10 | 142 | 0.0 | 4.8 | 0.00 | 0.00 | 0.00 | 59 | 1013.2 |
| 20260502020053 | 10 | 124 | 1.6 | 8.0 | 0.00 | 0.00 | 0.00 | 59 | 1013.1 |
| 20260502015551 | 10 | 126 | 1.6 | 8.0 | 0.00 | 0.00 | 0.00 | 59 | 1012.9 |
| 20260502015052 | 10 | 195 | 0.0 | 4.8 | 0.00 | 0.00 | 0.00 | 59 | 1012.9 |
| 20260502014552 | 10 | 195 | 0.0 | 6.4 | 0.00 | 0.00 | 0.00 | 59 | 1012.9 |
| 20260502014051 | 10 | 162 | 0.0 | 3.2 | 0.00 | 0.00 | 0.00 | 59 | 1012.8 |
| 20260502013551 | 10 | 168 | 0.0 | 1.6 | 0.00 | 0.00 | 0.00 | 59 | 1012.5 |
| 20260502013054 | 10 | 168 | 0.0 | 1.6 | 0.00 | 0.00 | 0.00 | 58 | 1012.4 |
| 20260502012551 | 10 | 160 | 0.0 | 1.6 | 0.00 | 0.00 | 0.00 | 57 | 1012.5 |
| 20260502012052 | 10 | 235 | 0.0 | 3.2 | 0.00 | 0.00 | 0.00 | 56 | 1012.4 |
| 20260502011551 | 10 | 242 | 0.0 | 3.2 | 0.00 | 0.00 | 0.00 | 54 | 1012.4 |
| 20260502011051 | 11 | 226 | 0.0 | 3.2 | 0.00 | 0.00 | 0.00 | 52 | 1012.4 |
| 20260502010550 | 11 | 244 | 0.0 | 4.8 | 0.00 | 0.00 | 0.00 | 50 | 1012.3 |
| 20260502010053 | 11 | 269 | 0.0 | 6.4 | 0.00 | 0.00 | 0.00 | 49 | 1012.3 |
| 20260502005550 | 11 | 261 | 1.6 | 4.8 | 0.00 | 0.00 | 0.00 | 49 | 1012.5 |
| 20260502005050 | 11 | 274 | 1.6 | 4.8 | 0.00 | 0.00 | 0.00 | 48 | 1012.4 |
| 20260502004604 | 11 | 278 | 0.0 | 4.8 | 0.00 | 0.00 | 0.00 | 48 | 1012.3 |
| 20260502004050 | 11 | 246 | 0.0 | 3.2 | 0.00 | 0.00 | 0.00 | 48 | 1012.4 |
| 20260502003549 | 11 | 232 | 0.0 | 1.6 | 0.00 | 0.00 | 0.00 | 48 | 1012.3 |
| 20260502003050 | 11 | 232 | 0.0 | 0.0 | 0.00 | 0.00 | 0.00 | 47 | 1012.2 |
| 20260502002549 | 12 | 232 | 0.0 | 1.6 | 0.00 | 0.00 | 0.00 | 46 | 1011.9 |
| 20260502002049 | 12 | 232 | 0.0 | 1.6 | 0.00 | 0.00 | 0.00 | 45 | 1011.8 |
| 20260502001549 | 12 | 232 | 0.0 | 1.6 | 0.00 | 0.00 | 0.00 | 43 | 1011.6 |
| 20260502001049 | 12 | 232 | 0.0 | 3.2 | 0.00 | 0.00 | 0.00 | 43 | 1011.6 |
| 20260502000549 | 12 | 232 | 0.0 | 4.8 | 0.00 | 0.00 | 0.00 | 41 | 1011.6 |
| 20260502000058 | 13 | 271 | 0.0 | 4.8 | 0.00 | 0.00 | 0.00 | 41 | 1011.7 |
| 20260501235548 | 13 | 270 | 0.0 | 4.8 | 0.00 | 0.00 | 0.00 | 40 | 1011.4 |
| 20260501235148 | 13 | 257 | 0.0 | 11.3 | 0.00 | 0.00 | 0.00 | 39 | 1011.4 |
| 20260501234548 | 13 | 268 | 3.2 | 11.3 | 0.00 | 0.00 | 0.00 | 39 | 1011.5 |
| 20260501234048 | 13 | 244 | 0.0 | 4.8 | 0.00 | 0.00 | 0.00 | 38 | 1011.4 |
| 20260501233550 | 13 | 241 | 0.0 | 9.7 | 0.00 | 0.00 | 0.00 | 39 | 1011.4 |
| 20260501233048 | 13 | 307 | 3.2 | 9.7 | 0.00 | 0.00 | 0.00 | 38 | 1011.3 |
| 20260501232547 | 13 | 300 | 1.6 | 9.7 | 0.00 | 0.00 | 0.00 | 38 | 1011.2 |
| 20260501232047 | 14 | 223 | 1.6 | 4.8 | 0.00 | 0.00 | 0.00 | 39 | 1011.2 |
| 20260501231547 | 14 | 261 | 0.0 | 8.0 | 0.00 | 0.00 | 0.00 | 37 | 1011.3 |
| 20260501231047 | 14 | 262 | 3.2 | 9.7 | 0.00 | 0.00 | 0.00 | 37 | 1011.4 |
| 20260501230547 | 15 | 320 | 3.2 | 9.7 | 0.00 | 0.00 | 0.00 | 37 | 1011.2 |
| 20260501230046 | 15 | 6 | 1.6 | 11.3 | 0.00 | 0.00 | 0.00 | 36 | 1011.3 |
| 20260501225547 | 15 | 105 | 4.8 | 17.7 | 0.00 | 0.00 | 0.00 | 36 | 1011.3 |
| 20260501225048 | 15 | 256 | 4.8 | 17.7 | 0.00 | 0.00 | 0.00 | 39 | 1011.2 |
| 20260501224545 | 15 | 307 | 4.8 | 17.7 | 0.00 | 0.00 | 0.00 | 38 | 1011.2 |
| 20260501224044 | 16 | 210 | 0.0 | 11.3 | 0.00 | 0.00 | 0.00 | 54 | 1011.2 |
| 20260501223544 | 15 | 156 | 3.2 | 11.3 | 0.00 | 0.00 | 0.00 | 52 | 1011.2 |
| 20260501223044 | 15 | 280 | 0.0 | 8.0 | 0.00 | 0.00 | 0.00 | 52 | 1011.1 |
| 20260501222544 | 16 | 232 | 1.6 | 11.3 | 0.00 | 0.00 | 0.00 | 50 | 1011.2 |
| 20260501222045 | 16 | 179 | 3.2 | 11.3 | 0.00 | 0.00 | 0.00 | 49 | 1011.3 |
| 20260501221544 | 16 | 193 | 1.6 | 8.0 | 0.00 | 0.00 | 0.00 | 51 | 1011.1 |
| 20260501221047 | 16 | 213 | 1.6 | 8.0 | 0.00 | 0.00 | 0.00 | 51 | 1011.1 |
| 20260501220544 | 16 | 203 | 1.6 | 8.0 | 0.00 | 0.00 | 0.00 | 50 | 1011.1 |
| 20260501220050 | 16 | 207 | 1.6 | 9.7 | 0.00 | 0.00 | 0.00 | 49 | 1011.2 |
| 20260501215545 | 16 | 198 | 3.2 | 8.0 | 0.00 | 0.00 | 0.00 | 49 | 1011.2 |
| 20260501215043 | 16 | 202 | 1.6 | 11.3 | 0.00 | 0.00 | 0.00 | 51 | 1011.1 |
| 20260501214542 | 16 | 127 | 3.2 | 11.3 | 0.00 | 0.00 | 0.00 | 49 | 1011.3 |
| 20260501214041 | 16 | 189 | 3.2 | 12.9 | 0.00 | 0.00 | 0.00 | 50 | 1011.2 |
| 20260501213540 | 16 | 179 | 3.2 | 12.9 | 0.00 | 0.00 | 0.00 | 51 | 1011.3 |
| 20260501213059 | 15 | 198 | 4.8 | 12.9 | 0.00 | 0.00 | 0.00 | 52 | 1011.2 |
| 20260501212541 | 15 | 204 | 4.8 | 14.5 | 0.00 | 0.00 | 0.00 | 53 | 1011.3 |
| 20260501212042 | 15 | 153 | 8.0 | 14.5 | 0.00 | 0.00 | 0.00 | 52 | 1011.2 |
| 20260501211540 | 16 | 142 | 3.2 | 11.3 | 0.00 | 0.00 | 0.00 | 52 | 1011.3 |
| 20260501211039 | 15 | 157 | 4.8 | 11.3 | 0.00 | 0.00 | 0.00 | 53 | 1011.3 |
| 20260501210539 | 15 | 172 | 6.4 | 11.3 | 0.00 | 0.00 | 0.00 | 53 | 1011.2 |
| 20260501210038 | 15 | 202 | 4.8 | 17.7 | 0.00 | 0.00 | 0.00 | 53 | 1011.3 |
| 20260501205539 | 15 | 181 | 3.2 | 9.7 | 0.00 | 0.00 | 0.00 | 53 | 1011.4 |
| 20260501205042 | 15 | 183 | 1.6 | 9.7 | 0.00 | 0.00 | 0.00 | 55 | 1011.4 |
| 20260501204542 | 15 | 155 | 0.0 | 17.7 | 0.00 | 0.00 | 0.00 | 54 | 1011.4 |
| 20260501204040 | 14 | 186 | 4.8 | 17.7 | 0.00 | 0.00 | 0.00 | 53 | 1011.4 |
| 20260501203538 | 15 | 115 | 4.8 | 16.1 | 0.00 | 0.00 | 0.00 | 53 | 1011.4 |
| 20260501203037 | 15 | 160 | 6.4 | 16.1 | 0.00 | 0.00 | 0.00 | 53 | 1011.4 |
| 20260501202537 | 15 | 150 | 6.4 | 14.5 | 0.00 | 0.00 | 0.00 | 51 | 1011.4 |
| 20260501202041 | 15 | 160 | 8.0 | 14.5 | 0.00 | 0.00 | 0.00 | 51 | 1011.6 |
| 20260501201537 | 15 | 122 | 4.8 | 17.7 | 0.00 | 0.00 | 0.00 | 50 | 1011.4 |
| 20260501201039 | 15 | 138 | 8.0 | 17.7 | 0.00 | 0.00 | 0.00 | 48 | 1011.6 |
| 20260501200539 | 16 | 146 | 4.8 | 14.5 | 0.00 | 0.00 | 0.00 | 48 | 1011.7 |
| 20260501200036 | 16 | 204 | 6.4 | 14.5 | 0.00 | 0.00 | 0.00 | 48 | 1011.5 |
| 20260501195535 | 16 | 133 | 4.8 | 17.7 | 0.00 | 0.00 | 0.00 | 48 | 1011.7 |
| 20260501195034 | 16 | 138 | 8.0 | 17.7 | 0.00 | 0.00 | 0.00 | 47 | 1011.9 |
| 20260501194538 | 16 | 205 | 6.4 | 17.7 | 0.00 | 0.00 | 0.00 | 48 | 1011.9 |
| 20260501194032 | 15 | 95 | 8.0 | 17.7 | 0.00 | 0.00 | 0.00 | 51 | 1012.2 |
| 20260501193530 | 15 | 105 | 3.2 | 20.9 | 0.00 | 0.00 | 0.00 | 50 | 1012.2 |
| 20260501193030 | 15 | 149 | 11.3 | 22.5 | 0.00 | 0.00 | 0.00 | 48 | 1012.3 |
| 20260501192530 | 15 | 188 | 9.7 | 20.9 | 0.00 | 0.00 | 0.00 | 49 | 1012.4 |
| 20260501192030 | 15 | 147 | 11.3 | 17.7 | 0.00 | 0.00 | 0.00 | 48 | 1012.4 |
| 20260501191533 | 15 | 172 | 6.4 | 17.7 | 0.00 | 0.00 | 0.00 | 49 | 1012.5 |
| 20260501191029 | 15 | 170 | 8.0 | 17.7 | 0.00 | 0.00 | 0.00 | 48 | 1012.5 |
| 20260501190529 | 15 | 129 | 4.8 | 17.7 | 0.00 | 0.00 | 0.00 | 48 | 1012.6 |
| 20260501190028 | 15 | 213 | 8.0 | 17.7 | 0.00 | 0.00 | 0.00 | 48 | 1012.7 |
| 20260501185526 | 15 | 174 | 4.8 | 19.3 | 0.00 | 0.00 | 0.00 | 48 | 1012.7 |
| 20260501185027 | 15 | 136 | 6.4 | 19.3 | 0.00 | 0.00 | 0.00 | 47 | 1012.7 |
| 20260501184526 | 15 | 184 | 6.4 | 22.5 | 0.00 | 0.00 | 0.00 | 47 | 1012.8 |
| 20260501184026 | 15 | 125 | 8.0 | 24.1 | 0.00 | 0.00 | 0.00 | 48 | 1012.8 |
| 20260501183525 | 15 | 199 | 6.4 | 16.1 | 0.00 | 0.00 | 0.00 | 49 | 1012.9 |
| 20260501183025 | 15 | 172 | 6.4 | 22.5 | 0.00 | 0.00 | 0.00 | 48 | 1012.9 |
| 20260501182525 | 15 | 108 | 6.4 | 16.1 | 0.00 | 0.00 | 0.00 | 50 | 1012.9 |
| 20260501182021 | 14 | 118 | 8.0 | 17.7 | 0.00 | 0.00 | 0.00 | 52 | 1012.8 |
| 20260501181521 | 13 | 159 | 11.3 | 22.5 | 0.00 | 0.00 | 0.00 | 51 | 1012.8 |
| 20260501181021 | 14 | 172 | 9.7 | 20.9 | 0.00 | 0.00 | 0.00 | 51 | 1012.8 |
| 20260501180520 | 13 | 77 | 8.0 | 25.7 | 0.00 | 0.00 | 0.00 | 52 | 1012.9 |
| 20260501180025 | 13 | 152 | 9.7 | 24.1 | 0.00 | 0.00 | 0.00 | 52 | 1013.0 |
| 20260501175518 | 13 | 151 | 9.7 | 24.1 | 0.00 | 0.00 | 0.00 | 52 | 1013.2 |
| 20260501175018 | 13 | 145 | 11.3 | 22.5 | 0.00 | 0.00 | 0.00 | 51 | 1013.1 |
| 20260501174522 | 13 | 94 | 9.7 | 22.5 | 0.00 | 0.00 | 0.00 | 50 | 1013.2 |
| 20260501174017 | 13 | 137 | 11.3 | 22.5 | 0.00 | 0.00 | 0.00 | 51 | 1013.1 |
| 20260501173519 | 13 | 185 | 8.0 | 20.9 | 0.00 | 0.00 | 0.00 | 51 | 1013.3 |
| 20260501173017 | 12 | 182 | 6.4 | 20.9 | 0.00 | 0.00 | 0.00 | 51 | 1013.4 |
| 20260501172518 | 13 | 147 | 9.7 | 22.5 | 0.00 | 0.00 | 0.00 | 51 | 1013.5 |
| 20260501172017 | 13 | 127 | 9.7 | 19.3 | 0.00 | 0.00 | 0.00 | 49 | 1013.5 |
| 20260501171516 | 13 | 138 | 9.7 | 16.1 | 0.00 | 0.00 | 0.00 | 52 | 1013.7 |
| 20260501171017 | 13 | 78 | 8.0 | 16.1 | 0.00 | 0.00 | 0.00 | 51 | 1013.7 |
| 20260501170515 | 13 | 103 | 6.4 | 14.5 | 0.00 | 0.00 | 0.00 | 52 | 1013.8 |
| 20260501170014 | 13 | 153 | 4.8 | 14.5 | 0.00 | 0.00 | 0.00 | 50 | 1013.8 |
| 20260501165513 | 12 | 182 | 1.6 | 11.3 | 0.00 | 0.00 | 0.00 | 54 | 1014.0 |
| 20260501165013 | 12 | 184 | 6.4 | 12.9 | 0.00 | 0.00 | 0.00 | 50 | 1014.2 |
| 20260501164525 | 12 | 115 | 3.2 | 9.7 | 0.00 | 0.00 | 0.00 | 52 | 1014.1 |
| 20260501164011 | 12 | 206 | 3.2 | 11.3 | 0.00 | 0.00 | 0.00 | 52 | 1014.1 |
| 20260501163510 | 12 | 121 | 3.2 | 14.5 | 0.00 | 0.00 | 0.00 | 52 | 1014.3 |
| 20260501163011 | 12 | 134 | 3.2 | 17.7 | 0.00 | 0.00 | 0.00 | 52 | 1014.4 |
| 20260501162509 | 12 | 162 | 4.8 | 17.7 | 0.00 | 0.00 | 0.00 | 55 | 1014.5 |
| 20260501162008 | 12 | 141 | 4.8 | 11.3 | 0.00 | 0.00 | 0.00 | 53 | 1014.6 |
| 20260501161508 | 12 | 207 | 4.8 | 11.3 | 0.00 | 0.00 | 0.00 | 53 | 1014.6 |
| 20260501161008 | 12 | 157 | 6.4 | 11.3 | 0.00 | 0.00 | 0.00 | 54 | 1014.7 |
| 20260501160506 | 11 | 151 | 4.8 | 16.1 | 0.00 | 0.00 | 0.00 | 55 | 1014.7 |
| 20260501160007 | 11 | 135 | 6.4 | 16.1 | 0.00 | 0.00 | 0.00 | 55 | 1014.7 |
| 20260501155509 | 11 | 156 | 6.4 | 11.3 | 0.00 | 0.00 | 0.00 | 55 | 1014.7 |
| 20260501155006 | 11 | 136 | 6.4 | 12.9 | 0.00 | 0.00 | 0.00 | 56 | 1014.7 |
| 20260501154506 | 11 | 158 | 6.4 | 14.5 | 0.00 | 0.00 | 0.00 | 55 | 1014.9 |
| 20260501154005 | 11 | 126 | 4.8 | 12.9 | 0.00 | 0.00 | 0.00 | 56 | 1014.9 |
| 20260501153506 | 11 | 142 | 6.4 | 12.9 | 0.00 | 0.00 | 0.00 | 55 | 1015.0 |
| 20260501153005 | 11 | 125 | 4.8 | 14.5 | 0.00 | 0.00 | 0.00 | 53 | 1015.0 |
| 20260501152505 | 11 | 86 | 3.2 | 14.5 | 0.00 | 0.00 | 0.00 | 52 | 1014.8 |
| 20260501152004 | 11 | 164 | 4.8 | 11.3 | 0.00 | 0.00 | 0.00 | 53 | 1014.8 |
| 20260501151502 | 11 | 162 | 3.2 | 11.3 | 0.00 | 0.00 | 0.00 | 54 | 1014.8 |
| 20260501151002 | 11 | 88 | 4.8 | 11.3 | 0.00 | 0.00 | 0.00 | 55 | 1014.8 |
| 20260501150506 | 11 | 136 | 4.8 | 11.3 | 0.00 | 0.00 | 0.00 | 54 | 1014.8 |
| 20260501150002 | 11 | 150 | 3.2 | 14.5 | 0.00 | 0.00 | 0.00 | 56 | 1014.9 |
| 20260501145604 | 11 | 191 | 4.8 | 14.5 | 0.00 | 0.00 | 0.00 | 57 | 1014.9 |
| 20260501145100 | 10 | 138 | 4.8 | 14.5 | 0.00 | 0.00 | 0.00 | 57 | 1014.8 |